Probability
0 0 0 0 0 0 0 0 0 0 0 0 0 0 0 0 0 0 0 0 0 0 0 0 0 0 0 0 0 0 0 6 6 6 3 0 0 0
0 0 0 0 0 0 0 0 0 0 0 0 0 0 0 0 0 0 0 0 0 0 0 0 0 0 0 0 0 0 0 0 3 0 0 0 0 0
0 0 0 0 0 0 0 0 0 0 0 0 0 0 0 0 0 0 0 0 0 0 0 0 0 0 0 0 0 0 0 0 0 0 0 0 0 0
0 0 0 0 0 0 0 0 0 0 0 0 0 0 0 0 0 0 0 0 0 0 0 0 0 0 0 0 0 0 0 0 0 0 0 0 0 0
0 0 0 0 0 0 0 0 0 0 0 0 0 0 0 0 0 0 0 0 0 0 0 0 0 0 0 0 0 0 0 0 0 0 0 0 0 0
0 0 0 0 0 0 0 0 0 0 0 0 0 0 0 0 0 0 0 0 0 0 0 0 0 0 0 0 0 0 0 0 0 0 0 0 0 0
0 0 0 0 0 0 0 0 0 0 0 0 0 0 0 0 0 0 0 0 0 0 0 0 0 0 0 0 0 0 0 0 0 0 0 0 0 0
0 0 0 0 0 0 0 0 0 0 0 0 0 0 0 0 0 0 0 0 0 0 0 0 0 0 0 0 0 0 0 0 0 0 0 0 0 0
0 0 0 0 0 0 0 0 0 0 0 0 0 0 0 0 0 0 0 0 0 0 0 0 0 0 0 0 0 0 0 0 0 0 0 0 0 0
0 0 0 0 0 0 0 0 0 0 0 0 0 0 0 0 0 0 0 0 0 0 0 0 0 0 0 0 0 0 0 0 0 0 0 0 0 0
0 0 0 0 0 0 0 0 0 0 0 0 0 0 0 0 0 0 0 0 0 0 0 0 0 0 0 0 0 0 0 0 0 0 0 0 0 0
0 0 0 0 0 0 0 0 0 0 0 0 0 0 0 0 0 0 0 0 0 0 0 0 0 0 0 0 0 0 0 0 0 0 0 0 0 0
0 0 0 0 0 0 0 0 0 0 0 0 0 0 0 0 0 0 0 0 0 0 0 0 0 0 0 0 0 0 0 0 0 0 0 0 0 0
0 0 0 0 0 0 0 0 0 0 0 0 0 0 0 0 0 0 0 0 0 0 0 0 0 0 0 0 0 0 0 0 0 0 0 0 0 0
0 0 0 0 0 0 0 0 0 0 0 0 0 0 0 0 0 0 0 0 0 0 0 0 0 0 0 0 0 0 0 0 0 0 0 0 0 0
0 0 0 0 0 0 0 0 0 0 0 0 0 0 0 0 0 0 0 0 0 0 0 0 0 0 0 0 0 0 0 0 0 0 0 0 0 0
0 0 0 0 0 0 0 0 0 0 0 0 0 0 0 0 0 0 0 0 0 0 0 0 0 0 0 0 0 0 0 0 0 0 0 0 0 0
0 0 0 0 0 0 0 0 0 0 0 0 0 0 0 0 0 0 0 0 0 0 0 0 0 0 0 0 0 0 0 0 0 0 0 0 0 0
0 0 0 0 0 0 0 0 0 0 0 0 0 0 0 0 0 0 0 0 0 0 0 0 0 0 0 0 0 0 0 0 0 0 0 0 0 0
0 0 0 0 0 0 0 0 0 0 0 0 0 0 0 0 0 0 0 0 0 0 0 0 0 0 0 0 0 0 0 0 0 0 0 0 0 0
0 0 0 0 0 0 0 0 0 0 0 0 0 0 0 0 0 0 0 0 0 0 0 0 0 0 0 0 0 0 0 0 0 0 0 0 0 0
0 0 0 0 0 0 0 0 0 0 0 0 0 0 0 0 0 0 0 0 0 0 0 0 0 0 0 0 0 0 0 0 0 0 0 0 0 0
0 0 0 0 0 0 0 0 0 0 0 0 0 0 0 0 0 0 0 0 0 0 0 0 0 0 0 0 0 0 0 0 0 0 0 0 0 0
Height
5801 5801 5800 5800 5799 5798 5798 5798 5798 5797 5796 5796 5796 5795 5795 5795 5794 5794 5793 5793 5792 5791 5790 5789 5789 5787 5786 5785 5783 5782 5781 5780 5779 5777 5775 5774 5773 5772
5797 5797 5796 5796 5796 5795 5795 5794 5794 5794 5793 5793 5792 5792 5792 5791 5791 5790 5790 5789 5788 5787 5786 5786 5785 5783 5782 5781 5779 5778 5777 5776 5774 5773 5771 5770 5768 5767
5793 5793 5792 5792 5792 5791 5791 5790 5790 5790 5790 5789 5788 5788 5787 5787 5787 5786 5786 5785 5784 5784 5783 5782 5781 5779 5778 5777 5775 5774 5773 5771 5770 5769 5767 5765 5764 5763
5788 5788 5787 5787 5787 5786 5786 5785 5785 5785 5785 5785 5784 5784 5783 5783 5783 5782 5782 5781 5780 5779 5779 5778 5776 5775 5774 5772 5771 5770 5769 5767 5765 5764 5762 5761 5759 5757
5782 5782 5782 5781 5781 5781 5781 5780 5780 5780 5780 5780 5780 5779 5779 5779 5778 5777 5777 5776 5776 5775 5774 5773 5771 5770 5769 5768 5767 5766 5764 5763 5761 5759 5758 5756 5754 5752
5776 5776 5776 5775 5775 5775 5775 5775 5775 5774 5775 5774 5774 5774 5774 5773 5773 5772 5771 5771 5770 5770 5769 5768 5767 5765 5764 5763 5762 5761 5759 5758 5756 5754 5752 5751 5749 5747
5770 5769 5769 5769 5769 5769 5769 5769 5769 5769 5769 5768 5768 5768 5768 5767 5767 5766 5766 5765 5764 5764 5763 5762 5761 5760 5758 5757 5756 5755 5754 5752 5751 5749 5747 5746 5744 5742
5763 5763 5763 5762 5762 5762 5763 5763 5763 5763 5762 5762 5762 5761 5761 5761 5760 5760 5759 5759 5759 5758 5757 5756 5755 5754 5752 5751 5750 5749 5748 5746 5745 5743 5741 5740 5738 5737
5756 5756 5756 5756 5756 5756 5756 5756 5756 5756 5756 5755 5755 5754 5754 5754 5754 5754 5753 5753 5752 5751 5751 5750 5748 5747 5746 5745 5744 5743 5741 5740 5738 5737 5735 5733 5732 5731
5749 5749 5749 5749 5749 5749 5749 5749 5748 5748 5748 5748 5747 5747 5747 5747 5747 5747 5746 5746 5745 5744 5744 5743 5742 5741 5740 5738 5737 5736 5735 5733 5732 5730 5728 5727 5725 5724
5741 5741 5741 5741 5741 5741 5741 5741 5741 5740 5740 5739 5739 5739 5739 5739 5739 5739 5739 5739 5738 5737 5737 5736 5735 5734 5733 5732 5730 5729 5727 5726 5724 5723 5721 5720 5719 5717
5733 5733 5733 5733 5733 5733 5733 5733 5733 5732 5732 5731 5731 5731 5731 5731 5731 5731 5731 5731 5730 5730 5729 5728 5727 5726 5726 5725 5723 5721 5720 5718 5717 5715 5714 5713 5711 5710
5725 5725 5725 5725 5725 5725 5724 5724 5724 5724 5724 5723 5723 5723 5723 5723 5723 5723 5723 5722 5722 5722 5721 5720 5720 5719 5718 5717 5716 5714 5712 5711 5709 5708 5706 5705 5704 5703
5717 5717 5717 5716 5716 5716 5716 5715 5715 5715 5715 5715 5715 5715 5714 5714 5714 5714 5714 5714 5713 5713 5712 5712 5711 5710 5709 5708 5707 5706 5704 5702 5701 5700 5698 5697 5696 5695
5709 5708 5708 5708 5707 5707 5707 5707 5706 5707 5706 5706 5706 5706 5705 5705 5705 5705 5705 5705 5705 5704 5703 5703 5702 5701 5700 5699 5698 5697 5696 5694 5692 5691 5690 5689 5688 5687
5700 5700 5699 5698 5698 5698 5698 5698 5698 5698 5697 5697 5697 5697 5696 5696 5696 5696 5696 5696 5696 5695 5694 5694 5693 5692 5691 5690 5689 5688 5687 5686 5684 5682 5681 5680 5679 5679
5691 5690 5690 5690 5689 5689 5689 5689 5688 5688 5688 5688 5688 5688 5687 5687 5687 5687 5687 5687 5687 5686 5686 5685 5684 5683 5682 5681 5680 5679 5678 5677 5675 5674 5673 5672 5671 5670
5682 5681 5681 5680 5680 5680 5680 5680 5679 5679 5679 5679 5679 5679 5678 5678 5678 5678 5678 5678 5677 5677 5676 5676 5675 5674 5673 5672 5671 5670 5669 5668 5666 5665 5664 5663 5663 5662
5673 5672 5672 5671 5671 5670 5670 5670 5670 5670 5669 5669 5669 5669 5669 5669 5668 5668 5668 5668 5668 5668 5667 5666 5665 5664 5664 5663 5662 5660 5660 5659 5658 5656 5655 5655 5654 5653
5663 5663 5662 5661 5661 5660 5660 5660 5660 5660 5660 5660 5660 5659 5659 5659 5659 5659 5658 5658 5658 5658 5657 5656 5655 5655 5654 5653 5653 5651 5650 5649 5648 5647 5646 5646 5645 5644
5654 5653 5652 5651 5651 5651 5651 5650 5650 5650 5650 5650 5650 5650 5649 5649 5649 5649 5649 5649 5648 5648 5647 5647 5646 5645 5644 5643 5643 5642 5640 5639 5638 5638 5637 5636 5636 5635
5644 5643 5642 5642 5641 5641 5641 5640 5640 5640 5640 5640 5639 5639 5639 5639 5639 5639 5639 5639 5638 5638 5638 5637 5636 5635 5634 5634 5633 5632 5631 5630 5628 5627 5627 5627 5626 5626
5634 5633 5633 5632 5631 5631 5630 5630 5630 5630 5629 5629 5629 5629 5629 5629 5629 5628 5628 5628 5629 5628 5628 5627 5627 5626 5625 5624 5623 5622 5621 5620 5619 5618 5618 5617 5617 5617
Wind_Speed
12 12 11 10 10 10 11 11 10 10 10 10 10 11 11 12 13 13 13 13 12 12 13 13 13 13 13 13 14 14 13 13 14 14 13 14 15 15
14 13 13 12 12 12 12 12 12 12 11 11 11 12 12 12 12 13 13 13 13 13 13 13 14 13 13 14 14 14 13 13 13 14 13 13 14 15
15 15 15 14 14 15 15 15 14 13 13 12 12 12 12 13 12 13 13 13 13 14 14 14 14 14 14 14 14 14 14 14 14 14 14 15 15 15
18 18 17 16 17 16 16 15 15 15 14 14 14 14 14 13 13 14 14 14 14 15 15 15 15 15 15 14 14 15 15 14 15 15 15 15 16 16
20 19 19 18 18 17 17 16 16 16 16 16 16 16 15 15 15 15 15 16 16 16 16 16 16 16 16 16 16 16 16 15 15 16 16 17 17 16
21 20 21 20 19 18 17 17 17 17 17 17 17 17 17 17 17 17 18 18 18 17 17 17 17 17 17 17 17 17 16 16 16 16 17 17 17 17
21 21 21 21 20 19 19 18 18 19 19 19 19 19 19 19 19 19 19 19 19 19 18 19 18 18 18 18 18 18 18 17 18 18 18 18 18 17
22 22 21 21 21 21 21 20 20 20 20 21 21 20 20 20 20 20 19 20 20 20 20 19 19 19 19 19 18 19 19 19 19 19 19 19 19 19
22 22 22 22 22 22 22 23 23 22 22 22 22 22 21 21 21 21 21 21 21 21 21 20 21 20 21 20 20 20 20 20 20 20 20 20 20 20
23 23 23 23 23 23 24 25 24 24 24 24 23 23 23 22 22 22 22 22 22 21 21 21 21 21 21 21 21 21 21 21 21 21 21 21 21 21
24 24 24 24 24 24 25 25 25 25 26 25 25 24 24 24 23 23 23 22 22 22 22 22 22 22 22 22 23 23 23 23 23 22 22 22 22 22
25 25 25 25 25 25 26 26 26 26 26 26 25 26 26 26 25 25 24 24 24 24 24 24 24 23 23 23 24 24 24 24 23 23 23 23 23 23
25 26 26 26 26 26 26 26 26 26 26 26 26 26 26 26 26 26 26 26 25 25 25 25 25 25 25 24 25 25 25 24 24 24 23 23 23 23
25 26 26 27 27 27 27 27 27 27 26 26 26 27 27 27 27 27 27 27 26 26 26 26 26 26 26 26 26 26 26 25 25 25 24 24 24 24
26 27 28 28 28 27 27 27 27 27 27 27 27 27 27 27 27 27 27 27 27 27 27 27 27 27 27 27 27 27 26 26 26 25 25 25 25 24
27 27 27 27 27 28 28 28 28 28 28 28 28 27 27 27 27 27 27 28 28 28 28 28 28 28 28 28 28 28 27 27 27 26 26 26 26 25
28 28 28 28 28 28 28 29 29 29 28 28 28 27 27 28 28 28 28 28 29 29 29 29 29 29 29 29 28 28 28 28 27 27 27 27 27 27
28 29 29 28 28 29 29 29 30 30 29 29 29 28 28 28 29 29 29 29 29 29 30 30 29 29 29 29 29 29 29 29 28 28 28 28 27 28
28 29 29 29 29 29 30 30 30 30 31 30 30 30 30 29 29 30 30 30 30 30 30 29 29 29 29 29 29 29 30 30 29 29 29 28 28 28
29 29 29 29 30 30 30 30 30 30 31 31 31 30 30 30 30 30 31 31 31 30 30 30 30 29 29 29 29 30 31 31 30 29 29 29 28 29
29 30 30 30 30 30 30 31 31 31 31 31 31 31 31 31 31 32 31 31 31 31 30 30 30 29 29 29 29 30 31 31 31 30 30 29 29 29
30 30 30 30 30 31 31 31 32 32 31 31 32 32 32 32 33 33 32 32 31 31 31 31 30 30 30 30 30 30 31 31 32 31 31 30 30 29
31 31 31 31 31 31 31 31 32 32 32 32 32 33 33 33 33 33 33 33 32 31 31 31 31 31 30 31 31 31 31 32 32 32 32 32 31 31
Wind_Direction
281 280 278 275 275 278 278 277 275 272 272 273 271 275 275 277 276 276 277 279 281 283 285 284 284 285 287 288 289 287 287 286 283 284 283 280 282 283
277 278 277 275 276 276 276 274 273 272 271 271 272 274 276 279 278 276 278 278 282 285 287 286 285 284 288 289 288 289 287 286 285 288 285 283 284 285
276 276 276 275 275 276 277 275 272 271 270 271 274 275 276 276 277 278 278 279 282 284 285 285 285 285 286 287 289 289 288 286 288 290 290 286 287 288
275 275 274 274 274 275 274 273 271 270 270 269 271 274 276 276 275 275 278 280 281 282 283 284 284 283 283 284 287 289 290 288 286 286 289 287 288 290
274 274 272 271 273 272 273 273 271 268 268 269 269 271 273 274 275 275 276 279 280 280 280 282 283 282 281 282 285 287 288 290 289 288 288 290 289 291
273 272 270 270 271 270 271 273 272 270 268 269 269 270 272 273 274 275 276 276 277 278 278 279 280 282 282 280 283 283 285 288 290 290 291 292 291 289
272 271 270 270 269 268 270 272 272 271 269 270 270 269 271 272 272 273 274 275 276 275 277 278 279 280 280 278 279 281 282 285 288 289 289 289 288 288
271 270 270 270 270 268 269 270 271 271 271 271 270 270 270 270 270 270 272 273 275 276 277 278 278 278 278 279 278 279 280 283 285 286 286 286 286 286
269 269 269 268 269 270 270 269 269 270 270 270 269 269 269 270 270 269 270 273 274 276 276 276 276 277 278 279 280 280 281 283 283 284 284 282 284 285
270 270 269 268 268 270 270 269 269 270 270 270 268 267 267 268 268 269 271 271 274 275 274 276 277 277 277 277 279 281 282 283 283 285 285 283 284 284
269 269 269 268 268 270 270 269 270 271 271 269 267 266 266 267 267 268 270 271 272 274 275 276 277 278 277 277 279 281 281 281 283 284 284 282 281 282
269 268 268 268 269 270 271 269 269 269 269 269 268 268 267 267 268 267 269 270 271 272 274 276 277 278 276 277 279 281 281 280 282 283 283 282 281 279
268 268 269 269 270 271 270 269 269 268 268 268 268 268 268 267 268 267 268 270 271 272 273 275 277 278 277 278 279 280 280 279 280 281 281 281 281 279
268 267 267 269 271 271 269 269 269 269 268 269 268 268 268 267 268 268 268 269 270 272 272 273 276 278 278 277 279 279 279 278 279 280 280 281 281 279
271 269 269 269 269 269 269 269 269 269 270 270 270 269 269 268 268 267 267 269 270 272 272 273 275 276 277 278 278 278 278 278 279 278 278 277 277 277
274 273 272 269 268 268 268 268 268 268 270 270 271 270 269 267 267 267 267 268 270 272 272 272 273 274 276 276 277 279 278 279 280 278 277 276 275 274
275 275 273 271 270 269 268 267 267 268 269 270 270 269 268 267 267 267 267 267 270 271 272 272 272 273 274 274 275 277 277 278 279 279 278 276 275 274
276 276 275 273 271 269 268 268 267 267 268 268 269 268 268 268 267 268 269 268 269 270 272 274 274 273 273 273 274 275 276 276 277 278 278 276 275 274
277 276 275 273 271 270 269 269 268 267 267 267 267 267 267 267 267 267 268 268 268 269 271 273 274 274 273 273 273 274 275 276 276 277 277 276 274 274
278 277 275 274 272 271 270 270 269 267 267 267 267 267 267 266 267 267 268 268 268 269 270 271 273 274 273 273 273 275 276 276 275 275 275 275 274 274
277 277 276 274 273 271 270 270 269 268 268 268 266 266 266 267 267 267 267 267 268 269 271 272 273 273 272 272 273 274 276 276 275 274 273 273 273 273
276 276 275 274 274 272 271 270 270 270 269 267 266 266 266 267 267 267 267 267 268 269 270 271 272 274 274 273 273 275 275 275 274 274 273 273 272 272
275 275 275 274 273 273 273 272 271 270 269 268 267 267 266 267 267 267 266 266 267 268 269 270 271 273 273 274 273 274 274 274 274 274 273 273 273 273